Vorticity
10 12 14 16 16 14 13 12 10 8 7 6 6 6 6 5 5 6 7 8 7 6 5 5 5 6 8 9 14 19 24 27 28 27 24 20 18 14 11 6 5 4 5 6 8 8 7 6 5 5 6 7 6 5 5 3 -1 -6 -6 1 1 -2 -6 -6 -4 1 7 8 6
9 13 16 17 16 15 13 12 10 10 10 10 10 10 10 9 8 9 10 11 12 11 10 9 8 8 7 8 11 16 21 25 26 26 25 22 20 17 13 10 7 7 9 10 11 10 10 8 7 7 7 8 8 7 6 3 1 3 8 13 10 6 2 -0 2 5 7 7 10
10 15 17 17 15 14 13 13 13 14 15 16 16 16 15 13 13 13 15 17 16 15 14 11 9 7 6 6 7 10 13 16 19 20 20 19 18 16 15 12 10 8 7 7 7 7 7 6 5 5 6 9 11 10 7 -0 1 7 13 12 8 4 4 7 15 18 17 15 21
15 17 17 16 15 14 14 14 16 16 17 18 18 17 17 16 14 12 10 10 9 10 10 10 9 7 6 5 4 5 6 8 10 11 12 13 13 12 10 7 4 1 -2 -3 -3 -2 -1 2 2 3 5 8 12 10 4 -9 -12 -8 -2 0 0 2 10 24 29 30 28 29 36
19 18 16 13 13 13 13 14 14 14 14 14 15 15 15 16 14 11 8 6 4 4 6 8 9 10 10 9 7 7 6 7 7 7 7 7 6 5 2 -4 -10 -11 -9 -8 -7 -5 -2 1 4 6 7 10 10 8 2 -11 -17 -16 -11 -4 3 16 32 43 39 35 32 33 37
19 17 13 11 11 11 11 10 10 10 11 11 13 14 16 18 18 16 14 11 8 7 7 10 12 14 15 15 14 13 12 11 10 8 6 4 2 0 -2 -6 -12 -11 -6 0 3 4 6 8 10 14 18 17 10 6 2 -6 -13 -12 -5 8 27 40 46 43 36 30 26 26 27
17 17 14 11 9 8 7 6 7 7 9 12 16 19 21 23 23 22 20 17 16 16 16 18 19 21 22 22 21 20 18 16 14 12 9 6 2 -1 -3 -4 -3 5 12 13 15 17 17 17 16 22 28 30 16 8 3 -2 -13 -9 8 36 43 41 34 27 20 16 14 13 14
15 18 17 13 9 6 4 4 5 6 9 12 15 18 20 22 23 22 22 21 20 21 22 23 24 25 26 28 28 27 25 24 22 20 17 15 11 9 7 5 4 6 11 17 17 17 18 19 18 22 30 40 26 14 5 -2 -13 -4 14 36 31 23 16 9 6 4 4 5 7
12 17 18 16 13 9 6 3 2 3 4 7 9 11 13 16 18 19 20 21 20 19 18 18 18 20 21 24 26 27 28 30 30 29 28 28 27 26 25 23 19 16 12 10 9 10 12 16 17 19 27 43 38 23 6 -4 -10 -2 11 21 14 9 4 2 0 0 2 5 9
9 11 12 11 12 11 9 5 0 -1 -1 2 3 4 6 8 11 15 17 20 20 18 15 12 10 11 12 15 17 19 21 24 27 30 32 35 37 37 36 32 25 17 11 7 9 11 15 19 21 24 31 47 48 30 8 -4 -4 2 9 12 6 4 2 3 4 5 8 12 17
11 10 9 10 12 12 11 7 0 -3 -3 0 2 2 2 4 6 9 13 16 18 18 16 14 12 12 13 14 14 14 15 16 18 20 24 29 34 38 38 36 31 27 24 23 25 27 29 32 34 37 43 53 52 34 12 1 4 8 10 8 5 4 6 8 11 14 17 19 20
18 15 13 13 14 15 14 11 3 -3 -4 1 3 4 3 3 3 4 6 8 10 13 16 19 19 18 17 15 14 13 13 12 12 13 16 22 28 34 37 38 37 38 38 40 42 42 43 44 45 46 48 51 46 33 19 11 14 14 13 8 6 7 10 14 17 20 21 21 18
23 22 20 18 17 17 16 16 9 2 -2 0 6 8 7 5 3 3 3 1 0 2 7 12 13 14 13 12 10 9 9 9 8 9 11 15 21 27 31 34 33 32 31 33 36 38 40 42 42 42 42 41 36 30 23 20 20 18 14 10 9 10 13 16 18 19 19 16 11
17 20 20 19 18 18 18 19 16 9 2 -1 5 8 9 6 4 4 5 4 -1 -4 -5 -3 -2 2 5 8 7 6 5 6 6 7 7 9 13 18 22 26 26 23 20 17 19 22 25 28 30 32 32 31 28 26 24 22 20 18 14 11 10 11 13 16 16 16 13 9 4
6 11 14 16 17 17 18 19 19 15 9 2 4 7 7 4 4 4 6 7 4 -1 -6 -11 -13 -10 -6 2 6 7 6 5 6 6 6 6 7 11 14 17 18 17 14 10 9 10 12 15 18 20 22 22 21 20 19 18 17 15 14 12 11 12 14 16 16 14 11 7 3
-4 -0 5 10 13 14 14 14 15 14 11 6 6 6 6 4 3 3 3 4 5 3 -1 -6 -12 -14 -13 -7 1 6 8 7 6 6 6 5 6 7 9 11 12 12 10 7 6 6 6 8 10 12 14 15 16 15 14 13 13 13 13 13 12 11 12 14 14 14 12 9 7
-8 -7 -3 1 5 7 8 8 8 8 6 3 3 3 3 3 4 5 6 6 7 7 6 3 -1 -5 -8 -8 -4 2 7 9 7 4 3 3 4 5 7 9 10 10 9 7 7 6 6 6 7 8 9 11 11 11 10 8 8 10 12 13 12 11 9 9 10 11 11 11 11
-4 -5 -4 -2 1 2 3 2 2 2 0 -1 -2 -1 -0 1 3 5 7 8 8 8 9 9 8 6 3 -1 -2 -1 2 6 5 2 -1 -4 -3 -2 0 3 6 7 9 10 10 10 10 9 9 9 9 9 9 8 6 4 4 6 9 12 12 11 8 6 6 8 9 10 9
-0 -0 -1 -1 0 2 2 1 -0 -1 -2 -1 -2 -1 0 1 1 1 2 3 4 5 7 9 10 11 10 7 3 0 -2 -2 -2 -4 -6 -9 -11 -12 -11 -9 -6 -4 -1 2 5 7 9 10 12 12 12 12 10 8 6 2 1 2 4 8 11 11 8 5 4 5 6 7 5
1 1 1 0 1 2 2 2 1 0 -0 1 1 1 2 2 1 0 -0 0 1 2 4 6 8 10 11 11 8 5 1 -4 -6 -9 -11 -13 -15 -16 -17 -17 -16 -15 -14 -12 -10 -8 -6 -3 0 3 6 8 7 7 5 2 -1 -3 -4 -3 1 3 4 2 1 1 2 4 2
2 1 -0 -1 0 2 3 4 4 4 4 4 4 3 2 1 1 1 1 1 2 3 4 5 7 8 10 11 11 10 7 2 -2 -6 -9 -12 -14 -15 -16 -17 -16 -15 -14 -14 -14 -15 -15 -15 -15 -14 -13 -11 -9 -7 -6 -5 -6 -7 -9 -12 -7 -5 -4 -4 -3 -3 -2 -2 -2
5 2 -1 -2 -1 0 3 4 5 5 6 6 6 5 4 2 1 0 0 2 3 3 4 4 5 6 7 9 10 11 11 9 5 2 -1 -4 -5 -6 -8 -8 -8 -7 -6 -5 -5 -5 -5 -6 -8 -10 -13 -15 -16 -17 -16 -14 -13 -13 -13 -13 -10 -10 -11 -10 -9 -8 -8 -9 -8
9 6 3 0 -0 0 1 2 2 3 4 4 5 5 5 4 2 1 0 0 2 3 3 3 2 2 3 4 6 8 9 10 10 8 6 4 4 4 4 3 2 2 3 4 5 6 6 7 7 6 5 2 -1 -4 -6 -8 -8 -8 -8 -8 -9 -10 -12 -13 -12 -11 -11 -12 -13
11 10 9 7 6 5 4 3 2 2 2 3 3 3 4 4 4 3 2 2 2 2 2 2 2 1 1 2 3 5 6 8 9 9 8 7 7 7 8 9 9 8 8 8 9 9 10 11 13 14 14 14 13 12 10 8 7 7 6 6 4 2 0 -2 -4 -5 -6 -7 -8
16 15 14 13 12 11 10 9 8 6 6 5 5 5 5 5 5 5 5 5 4 3 3 2 2 2 1 2 3 4 6 6 7 8 9 8 7 7 7 8 9 10 10 10 10 10 11 12 13 13 14 15 15 14 14 14 14 14 14 15 15 15 14 12 10 8 6 4 2
19 18 18 17 16 15 15 15 13 12 10 10 10 10 10 9 9 9 9 9 8 7 5 4 3 2 2 1 2 3 4 5 7 8 8 9 9 9 8 8 8 9 10 11 11 11 10 10 11 12 12 12 12 11 11 12 12 13 13 14 15 16 17 17 17 16 15 13 12
16 17 17 17 16 16 15 16 16 16 16 15 16 16 16 16 15 15 14 14 13 12 10 9 7 5 4 2 2 2 3 5 6 8 9 10 10 11 10 9 9 9 10 11 11 11 10 10 10 10 10 10 9 8 8 9 9 10 11 12 13 13 14 15 16 16 16 16 16
11 12 12 13 13 13 12 12 13 15 16 17 18 18 18 18 18 18 18 18 18 17 16 15 13 10 8 7 7 6 6 6 7 8 10 11 13 13 12 11 11 11 11 12 12 12 11 10 10 10 10 9 7 7 7 7 8 9 10 11 12 13 13 14 14 15 15 16 16
8 8 9 9 10 10 9 9 9 10 12 13 13 14 15 16 16 17 17 18 19 20 20 19 17 16 15 15 14 13 12 11 10 10 11 13 14 15 15 14 13 13 13 14 13 12 12 11 11 11 11 9 8 7 7 7 8 9 10 11 11 12 13 14 14 15 16 16 17
7 7 7 7 7 8 8 8 7 7 7 7 8 9 10 11 12 13 13 14 16 18 19 20 19 18 17 16 16 17 17 16 15 14 14 14 15 16 16 16 16 15 15 15 14 13 13 13 13 13 13 11 10 9 9 9 10 10 11 11 12 12 13 13 14 15 16 16 15
7 7 7 7 7 7 7 7 7 7 6 6 6 6 7 8 8 9 9 10 11 12 14 16 17 18 17 17 16 16 16 17 18 17 16 14 14 15 16 17 17 17 16 14 12 13 14 15 16 16 15 14 13 12 11 11 12 12 13 13 13 13 13 13 13 13 13 12 10
8 8 8 8 8 8 8 8 8 7 7 7 6 6 6 6 6 7 7 7 7 8 9 10 13 14 16 16 15 14 14 15 16 17 17 16 15 15 15 16 16 15 12 10 12 13 15 16 17 17 17 16 15 14 14 13 13 13 13 13 12 12 11 11 11 10 9 9 8
10 10 9 9 9 9 9 9 9 9 8 8 8 7 7 6 6 6 7 7 7 7 7 7 9 11 12 13 13 13 13 13 13 14 15 16 15 15 15 15 15 15 15 15 15 15 15 15 17 17 18 17 17 16 15 14 13 13 12 11 11 11 11 11 10 10 9 9 8
11 11 10 10 10 10 10 10 10 10 9 9 9 9 8 7 7 7 7 7 7 8 8 7 7 8 9 10 11 11 11 11 12 12 13 13 14 14 14 14 14 14 14 15 16 16 16 16 16 16 16 17 16 15 14 14 14 13 13 12 11 11 11 11 11 10 10 9 9
12 11 11 11 11 11 10 10 10 10 10 10 10 10 10 9 8 8 8 8 8 8 8 8 8 8 8 9 10 10 11 11 11 11 12 12 12 12 12 12 12 13 14 15 14 14 14 14 13 13 14 15 15 15 14 14 13 13 13 12 12 12 12 11 11 11 10 10 10
12 12 12 11 11 11 11 11 11 11 11 11 11 11 11 10 10 10 9 8 8 9 9 9 9 9 9 9 9 10 11 11 11 11 11 11 11 11 11 11 11 11 12 12 12 12 12 12 12 12 12 13 13 13 13 13 13 12 12 13 13 12 12 12 12 11 11 10 10
11 12 12 12 12 11 11 11 11 11 11 11 11 11 11 11 11 11 10 9 9 10 10 10 10 10 10 10 10 10 10 10 10 11 11 11 11 11 11 11 10 9 9 9 11 12 13 12 12 12 13 13 13 13 13 13 12 12 12 12 12 12 12 12 12 11 11 11 11
10 11 12 12 12 12 11 11 11 10 10 10 10 10 10 10 11 11 10 9 9 10 10 10 10 11 11 10 10 10 10 10 10 10 10 11 11 11 10 9 9 9 10 10 11 12 12 12 12 13 13 14 13 13 13 12 12 12 12 12 12 12 12 12 12 12 11 11 11
10 10 11 11 12 12 12 11 11 10 9 9 9 9 9 9 9 10 10 9 10 10 10 9 10 11 11 11 11 11 11 10 10 10 10 10 11 11 11 9 9 10 11 11 10 10 10 11 12 13 13 13 13 13 12 12 12 12 12 11 11 11 11 11 11 11 11 11 11
12 11 11 11 12 12 12 12 12 11 10 9 9 8 8 8 8 9 9 9 9 10 10 9 10 10 11 11 11 11 11 11 11 11 10 10 10 10 11 12 11 10 10 10 10 10 10 10 10 11 11 12 12 12 12 12 11 11 11 11 11 11 11 11 11 11 11 11 12
14 13 13 12 12 12 12 13 13 13 12 11 10 9 8 8 8 8 8 8 9 9 9 9 9 10 10 11 11 11 11 11 11 11 11 11 10 10 10 11 11 11 10 11 11 10 10 10 10 10 10 10 11 11 11 11 11 11 11 10 10 10 10 10 10 11 11 11 12
Height
5714 5714 5715 5716 5717 5718 5720 5721 5722 5723 5724 5725 5726 5727 5729 5730 5730 5730 5731 5732 5732 5732 5733 5733 5734 5734 5734 5735 5735 5736 5737 5738 5739 5740 5740 5740 5740 5741 5742 5742 5743 5744 5744 5745 5746 5747 5748 5749 5750 5751 5751 5752 5754 5755 5757 5758 5760 5761 5762 5764 5765 5766 5765 5765 5765 5765 5764 5762 5762
5711 5711 5711 5712 5713 5714 5716 5717 5718 5719 5720 5721 5722 5723 5725 5726 5726 5727 5727 5728 5728 5729 5729 5730 5730 5731 5731 5731 5732 5733 5734 5735 5735 5736 5736 5736 5736 5737 5738 5739 5740 5740 5741 5741 5742 5743 5743 5744 5745 5746 5747 5749 5751 5752 5754 5756 5758 5759 5760 5761 5761 5761 5762 5762 5762 5761 5761 5760 5759
5709 5708 5708 5709 5711 5711 5712 5713 5714 5715 5716 5717 5718 5720 5721 5722 5723 5724 5725 5725 5725 5726 5726 5726 5727 5728 5729 5729 5729 5730 5730 5731 5731 5732 5732 5732 5733 5734 5734 5735 5736 5736 5737 5737 5738 5739 5739 5740 5741 5742 5743 5745 5748 5750 5752 5754 5756 5757 5758 5757 5757 5757 5758 5759 5758 5757 5756 5756 5755
5707 5706 5706 5707 5707 5708 5709 5710 5711 5712 5713 5714 5716 5717 5718 5719 5721 5723 5724 5724 5724 5724 5724 5724 5724 5725 5726 5727 5727 5727 5727 5727 5727 5728 5728 5729 5730 5730 5730 5731 5732 5732 5733 5734 5735 5735 5736 5737 5738 5738 5740 5742 5745 5747 5749 5751 5752 5753 5754 5753 5753 5753 5755 5756 5755 5753 5751 5750 5750
5705 5704 5704 5704 5705 5706 5706 5707 5708 5709 5710 5711 5712 5714 5715 5716 5719 5721 5722 5722 5721 5721 5721 5721 5721 5721 5722 5723 5724 5724 5724 5724 5724 5724 5724 5725 5726 5726 5727 5728 5728 5728 5729 5730 5731 5731 5732 5733 5734 5735 5736 5739 5741 5744 5746 5748 5749 5749 5749 5748 5749 5750 5751 5751 5751 5751 5748 5746 5746
5701 5701 5701 5701 5702 5704 5705 5705 5706 5707 5708 5709 5710 5711 5712 5713 5715 5717 5719 5720 5718 5718 5718 5719 5719 5719 5719 5720 5720 5721 5721 5721 5721 5720 5720 5721 5721 5723 5724 5725 5725 5726 5726 5726 5727 5728 5728 5729 5729 5730 5732 5735 5738 5740 5742 5744 5745 5745 5745 5745 5746 5746 5747 5748 5749 5748 5746 5744 5744
5696 5697 5698 5699 5700 5701 5702 5703 5704 5705 5706 5707 5708 5708 5709 5710 5711 5713 5714 5715 5715 5715 5715 5716 5717 5717 5717 5717 5718 5718 5718 5717 5716 5716 5716 5716 5717 5718 5720 5721 5722 5724 5725 5724 5726 5726 5726 5725 5725 5726 5728 5731 5734 5736 5737 5739 5740 5741 5742 5742 5742 5743 5744 5745 5745 5745 5743 5742 5741
5694 5695 5696 5697 5698 5699 5700 5701 5702 5703 5705 5706 5706 5706 5706 5707 5708 5708 5709 5710 5710 5711 5711 5713 5713 5713 5713 5714 5714 5715 5715 5714 5711 5710 5711 5711 5712 5714 5716 5717 5720 5722 5724 5725 5726 5726 5725 5723 5722 5722 5724 5726 5729 5731 5734 5736 5737 5738 5739 5739 5738 5739 5739 5740 5740 5740 5740 5739 5739
5691 5693 5694 5696 5697 5697 5698 5699 5700 5702 5704 5704 5703 5703 5703 5704 5704 5705 5706 5706 5707 5708 5708 5708 5708 5708 5709 5709 5709 5709 5709 5709 5707 5706 5707 5708 5710 5712 5713 5715 5718 5719 5721 5722 5722 5722 5721 5721 5719 5718 5719 5721 5724 5727 5730 5732 5734 5735 5735 5734 5733 5733 5733 5734 5735 5736 5736 5736 5736
5689 5690 5692 5693 5694 5695 5695 5696 5698 5701 5701 5700 5699 5700 5700 5701 5701 5702 5702 5703 5704 5704 5705 5704 5705 5705 5706 5706 5706 5705 5705 5704 5704 5704 5705 5707 5708 5709 5710 5711 5712 5713 5714 5715 5716 5717 5717 5716 5715 5715 5715 5717 5720 5724 5727 5728 5730 5731 5731 5730 5729 5729 5729 5730 5731 5732 5733 5733 5733
5686 5688 5689 5691 5691 5691 5692 5693 5695 5697 5697 5696 5696 5697 5697 5698 5698 5699 5699 5700 5701 5701 5701 5701 5702 5702 5703 5703 5703 5702 5702 5702 5702 5703 5704 5704 5705 5705 5706 5706 5707 5708 5708 5709 5710 5710 5711 5711 5711 5711 5712 5713 5717 5720 5722 5724 5725 5726 5727 5726 5726 5726 5726 5726 5727 5727 5729 5730 5731
5683 5685 5686 5687 5688 5688 5688 5689 5691 5693 5694 5694 5694 5694 5695 5696 5696 5696 5696 5697 5697 5697 5697 5698 5698 5699 5699 5699 5699 5699 5699 5700 5701 5702 5701 5700 5700 5700 5701 5701 5702 5703 5704 5704 5705 5705 5706 5706 5706 5707 5708 5710 5713 5716 5717 5719 5721 5722 5723 5722 5722 5722 5722 5722 5723 5724 5725 5726 5728
5679 5680 5681 5681 5682 5683 5684 5685 5687 5689 5691 5692 5691 5691 5692 5694 5694 5694 5694 5693 5693 5694 5694 5694 5695 5695 5696 5695 5695 5695 5695 5695 5696 5697 5697 5696 5696 5696 5697 5697 5698 5698 5699 5700 5701 5701 5702 5702 5703 5703 5705 5706 5709 5711 5713 5715 5717 5718 5718 5718 5719 5719 5719 5719 5720 5721 5721 5722 5724
5676 5676 5677 5678 5678 5679 5680 5681 5683 5686 5688 5690 5687 5687 5689 5691 5692 5692 5691 5690 5690 5690 5691 5691 5691 5691 5691 5691 5691 5692 5692 5692 5692 5692 5693 5693 5694 5694 5695 5695 5695 5695 5695 5696 5696 5697 5698 5699 5700 5701 5702 5704 5706 5707 5709 5711 5713 5713 5714 5715 5715 5716 5716 5717 5717 5718 5719 5720 5721
5673 5674 5674 5675 5676 5677 5677 5678 5679 5681 5684 5685 5683 5683 5685 5688 5690 5689 5687 5686 5686 5686 5687 5688 5688 5688 5689 5689 5689 5690 5690 5690 5691 5691 5691 5691 5692 5692 5692 5693 5693 5693 5693 5693 5693 5693 5694 5695 5696 5698 5699 5701 5702 5704 5706 5707 5708 5709 5710 5711 5712 5713 5714 5715 5716 5716 5717 5717 5719
5671 5672 5672 5673 5674 5674 5675 5676 5676 5679 5681 5680 5679 5679 5681 5682 5684 5683 5682 5682 5682 5683 5684 5685 5685 5686 5686 5686 5687 5687 5688 5688 5688 5689 5689 5689 5690 5690 5691 5691 5691 5691 5691 5691 5691 5691 5691 5692 5693 5695 5696 5698 5699 5701 5702 5703 5704 5705 5706 5707 5708 5710 5711 5712 5713 5714 5715 5715 5716
5668 5669 5670 5671 5671 5672 5672 5672 5673 5675 5676 5675 5675 5676 5677 5677 5677 5678 5678 5679 5679 5680 5681 5681 5682 5683 5683 5684 5684 5685 5685 5686 5686 5686 5686 5687 5688 5688 5689 5689 5689 5689 5689 5689 5689 5690 5690 5690 5691 5692 5693 5695 5696 5697 5698 5699 5700 5701 5702 5703 5705 5706 5707 5708 5709 5710 5711 5711 5713
5665 5666 5667 5668 5668 5669 5669 5670 5670 5670 5671 5672 5673 5673 5674 5674 5674 5675 5675 5676 5676 5677 5677 5678 5679 5680 5681 5681 5681 5682 5682 5682 5683 5683 5684 5684 5685 5686 5686 5687 5687 5687 5687 5688 5688 5688 5688 5688 5689 5690 5691 5692 5693 5694 5695 5696 5697 5698 5699 5700 5701 5702 5702 5703 5704 5705 5706 5707 5709
5662 5663 5664 5665 5665 5666 5666 5666 5666 5667 5668 5669 5669 5670 5670 5671 5671 5671 5672 5672 5673 5673 5674 5675 5676 5677 5677 5678 5678 5679 5679 5679 5680 5680 5680 5681 5681 5682 5683 5684 5685 5685 5686 5686 5686 5686 5686 5687 5687 5688 5689 5689 5690 5691 5692 5693 5694 5695 5696 5697 5698 5698 5699 5699 5700 5701 5702 5703 5705
5660 5660 5661 5661 5662 5662 5663 5663 5664 5664 5665 5665 5665 5665 5666 5667 5667 5668 5669 5669 5669 5670 5671 5671 5672 5673 5674 5675 5675 5676 5676 5676 5676 5677 5677 5677 5678 5679 5679 5680 5681 5682 5683 5683 5684 5684 5685 5685 5685 5686 5686 5687 5688 5688 5689 5690 5691 5692 5693 5694 5695 5695 5695 5696 5697 5698 5699 5700 5701
5656 5657 5658 5658 5659 5659 5659 5659 5660 5661 5661 5661 5661 5662 5662 5663 5664 5665 5665 5666 5666 5666 5667 5668 5669 5670 5671 5671 5672 5672 5673 5673 5673 5674 5674 5674 5675 5675 5676 5676 5677 5678 5679 5680 5681 5681 5682 5682 5683 5683 5684 5685 5685 5686 5687 5688 5689 5690 5691 5691 5692 5692 5693 5693 5694 5695 5696 5696 5697
5652 5653 5654 5655 5655 5655 5655 5655 5656 5656 5657 5657 5658 5659 5659 5660 5661 5661 5661 5662 5663 5663 5664 5664 5665 5666 5666 5667 5668 5669 5669 5670 5670 5670 5671 5671 5671 5672 5672 5673 5674 5674 5675 5676 5677 5677 5678 5679 5680 5680 5681 5682 5682 5683 5684 5685 5686 5686 5687 5687 5688 5690 5691 5691 5691 5691 5692 5693 5694
5648 5649 5649 5650 5650 5651 5651 5651 5652 5652 5653 5654 5654 5655 5656 5656 5657 5657 5658 5659 5659 5660 5660 5661 5661 5662 5662 5663 5664 5665 5666 5666 5667 5667 5667 5667 5668 5668 5669 5669 5670 5671 5671 5672 5673 5673 5674 5675 5676 5676 5677 5678 5679 5679 5680 5681 5682 5683 5683 5684 5685 5686 5687 5687 5687 5688 5689 5689 5690
5644 5644 5645 5646 5646 5646 5647 5647 5648 5649 5649 5650 5651 5651 5652 5652 5653 5654 5654 5655 5656 5656 5656 5657 5658 5658 5659 5659 5660 5661 5661 5662 5663 5664 5664 5664 5664 5665 5665 5666 5666 5667 5667 5668 5668 5669 5670 5671 5671 5672 5673 5674 5674 5675 5676 5677 5678 5679 5679 5680 5681 5682 5683 5683 5684 5684 5685 5686 5686
5640 5641 5641 5642 5642 5643 5643 5644 5645 5645 5646 5646 5647 5647 5648 5648 5649 5650 5651 5651 5651 5652 5653 5654 5654 5654 5654 5655 5655 5656 5657 5658 5659 5660 5660 5661 5661 5661 5661 5662 5663 5663 5663 5664 5664 5665 5666 5666 5667 5668 5669 5669 5670 5671 5671 5672 5673 5674 5675 5676 5677 5678 5678 5679 5680 5680 5681 5681 5682
5637 5638 5638 5638 5639 5639 5640 5640 5641 5641 5642 5642 5643 5643 5644 5644 5645 5645 5646 5646 5647 5648 5649 5650 5650 5650 5650 5650 5651 5651 5652 5653 5654 5655 5656 5656 5657 5657 5658 5658 5659 5659 5660 5660 5660 5661 5661 5662 5663 5664 5665 5665 5666 5666 5667 5668 5669 5670 5671 5671 5672 5673 5674 5675 5675 5676 5676 5677 5678
5635 5635 5635 5635 5635 5636 5636 5636 5636 5637 5638 5639 5639 5639 5640 5640 5640 5641 5641 5642 5642 5643 5644 5646 5646 5646 5646 5646 5646 5647 5648 5648 5649 5650 5651 5652 5653 5654 5654 5655 5655 5656 5656 5656 5656 5656 5657 5657 5658 5659 5660 5661 5662 5662 5663 5664 5665 5665 5666 5667 5668 5669 5670 5670 5671 5671 5672 5673 5673
5631 5632 5632 5632 5632 5633 5632 5633 5633 5634 5634 5635 5635 5635 5636 5636 5636 5636 5637 5637 5638 5638 5639 5640 5641 5641 5641 5642 5642 5643 5643 5644 5644 5645 5646 5647 5648 5649 5650 5651 5651 5651 5652 5652 5652 5652 5653 5653 5654 5655 5656 5657 5657 5658 5659 5660 5661 5661 5662 5662 5663 5664 5665 5666 5666 5667 5668 5668 5669
5627 5628 5629 5629 5629 5630 5630 5630 5630 5630 5630 5631 5631 5631 5632 5632 5632 5632 5632 5633 5633 5634 5635 5636 5636 5636 5637 5638 5638 5638 5639 5639 5640 5641 5641 5642 5643 5644 5645 5646 5647 5647 5647 5648 5648 5648 5649 5650 5650 5651 5651 5652 5653 5654 5655 5656 5656 5657 5658 5658 5659 5660 5661 5661 5662 5662 5663 5664 5665
5624 5624 5625 5625 5626 5626 5626 5626 5626 5626 5626 5626 5627 5627 5628 5628 5628 5628 5629 5629 5629 5630 5630 5631 5631 5632 5633 5633 5634 5634 5635 5635 5636 5636 5637 5637 5638 5639 5640 5641 5642 5643 5643 5643 5644 5644 5645 5646 5646 5647 5647 5648 5649 5650 5651 5651 5652 5653 5654 5654 5655 5656 5656 5657 5657 5658 5659 5660 5661
5620 5620 5621 5621 5621 5622 5622 5622 5623 5623 5623 5623 5623 5623 5623 5624 5624 5624 5625 5625 5625 5626 5626 5626 5627 5628 5628 5628 5629 5630 5631 5631 5631 5632 5632 5633 5634 5634 5636 5637 5638 5638 5639 5640 5641 5641 5641 5642 5642 5643 5643 5644 5644 5645 5646 5647 5648 5649 5650 5650 5651 5651 5652 5653 5653 5654 5655 5656 5657
5617 5617 5617 5617 5617 5617 5618 5618 5618 5619 5619 5619 5619 5619 5619 5619 5619 5620 5620 5621 5621 5621 5621 5622 5623 5623 5623 5624 5625 5626 5626 5626 5627 5627 5628 5629 5629 5630 5631 5632 5633 5634 5635 5636 5638 5638 5637 5637 5638 5638 5639 5640 5640 5641 5642 5643 5644 5645 5646 5646 5646 5647 5648 5649 5650 5650 5651 5651 5652
5613 5613 5613 5613 5613 5613 5613 5613 5614 5614 5614 5614 5615 5615 5615 5615 5615 5615 5615 5616 5616 5617 5617 5618 5618 5619 5619 5620 5621 5621 5621 5622 5622 5623 5624 5624 5625 5626 5626 5628 5628 5630 5632 5633 5634 5633 5633 5634 5634 5634 5635 5636 5636 5637 5638 5639 5640 5641 5642 5642 5642 5643 5645 5646 5646 5646 5646 5647 5647
5608 5608 5609 5609 5609 5609 5609 5609 5609 5609 5610 5610 5610 5610 5610 5610 5610 5610 5611 5611 5611 5612 5612 5613 5614 5614 5615 5615 5616 5616 5617 5617 5618 5619 5619 5620 5621 5621 5622 5623 5624 5626 5627 5629 5629 5628 5629 5629 5629 5630 5631 5631 5632 5633 5634 5635 5636 5637 5637 5638 5638 5639 5640 5640 5641 5641 5642 5643 5643
5603 5604 5604 5604 5604 5604 5604 5604 5604 5604 5604 5605 5604 5605 5605 5605 5605 5605 5605 5606 5606 5606 5607 5608 5609 5609 5610 5610 5611 5611 5612 5613 5613 5614 5615 5616 5616 5617 5618 5619 5620 5621 5622 5623 5624 5624 5624 5624 5625 5626 5626 5627 5628 5629 5630 5631 5631 5632 5633 5634 5634 5635 5636 5636 5636 5637 5638 5639 5639
5599 5599 5598 5598 5598 5599 5599 5599 5599 5599 5599 5599 5599 5599 5599 5600 5600 5600 5600 5601 5601 5601 5602 5603 5603 5604 5605 5606 5606 5607 5607 5608 5609 5609 5610 5611 5612 5613 5614 5615 5615 5616 5617 5618 5619 5620 5620 5620 5621 5621 5622 5623 5623 5624 5625 5626 5627 5628 5629 5630 5630 5631 5631 5632 5633 5633 5634 5635 5635
5593 5593 5593 5593 5593 5593 5593 5594 5594 5594 5594 5594 5594 5594 5594 5594 5595 5595 5595 5596 5596 5596 5597 5597 5598 5599 5600 5600 5601 5601 5602 5603 5604 5605 5606 5606 5608 5609 5610 5610 5611 5611 5613 5614 5615 5615 5616 5616 5616 5617 5618 5619 5620 5620 5621 5622 5623 5624 5625 5626 5626 5627 5627 5628 5629 5629 5630 5631 5631
5588 5588 5588 5588 5588 5588 5588 5588 5589 5589 5589 5588 5589 5589 5589 5589 5589 5590 5590 5591 5591 5591 5591 5592 5593 5593 5594 5595 5596 5596 5597 5598 5599 5600 5601 5601 5603 5604 5605 5606 5606 5607 5609 5610 5610 5610 5611 5612 5612 5613 5614 5615 5616 5616 5617 5618 5619 5620 5621 5621 5622 5623 5623 5624 5625 5625 5626 5627 5627
5582 5582 5583 5583 5583 5583 5583 5583 5583 5583 5583 5583 5583 5584 5584 5584 5584 5584 5585 5585 5586 5586 5586 5587 5587 5588 5588 5589 5590 5591 5592 5592 5593 5594 5595 5596 5597 5599 5600 5601 5602 5602 5603 5604 5605 5606 5606 5607 5608 5609 5610 5611 5611 5612 5613 5614 5615 5616 5617 5617 5618 5619 5620 5620 5621 5621 5622 5623 5624
5576 5576 5577 5577 5577 5577 5578 5578 5578 5578 5578 5578 5578 5578 5579 5579 5579 5579 5579 5580 5581 5581 5581 5582 5582 5583 5583 5584 5585 5586 5586 5587 5588 5589 5590 5591 5592 5593 5595 5596 5597 5597 5598 5599 5601 5601 5602 5603 5604 5605 5606 5606 5607 5608 5609 5610 5611 5612 5613 5614 5615 5615 5616 5616 5617 5618 5618 5619 5620
5571 5571 5571 5571 5571 5571 5572 5572 5572 5572 5573 5573 5573 5573 5573 5573 5574 5574 5575 5575 5575 5576 5576 5576 5577 5577 5578 5579 5580 5581 5581 5582 5583 5584 5585 5586 5587 5588 5589 5591 5591 5592 5593 5595 5596 5597 5597 5598 5599 5600 5601 5602 5603 5604 5605 5606 5607 5608 5609 5610 5611 5611 5612 5612 5613 5614 5615 5615 5616